CW2969 Weather Reports


time (UTC)temp
C
wind
direction
speed
KPH
gust
KPH
rain 1hr
cm
rain 24hr
cm
rain mn
cm
humidity
%
barometer
mb
20260902230522 37 191 3.2 6.4 0.00 0.00 0.00 42 1009.3
20260902230022 37 269 1.6 3.2 0.00 0.00 0.00 41 1009.3
20260902225021 36 304 1.6 3.2 0.00 0.00 0.00 43 1009.4
20260902224521 36 296 0.0 3.2 0.00 0.00 0.00 43 1009.4
20260902224021 36 272 1.6 6.4 0.00 0.00 0.00 42 1009.4
20260902223521 36 232 1.6 6.4 0.00 0.00 0.00 43 1009.4
20260902223021 36 260 3.2 6.4 0.00 0.00 0.00 42 1009.4
20260902222521 36 331 1.6 4.8 0.00 0.00 0.00 43 1009.4
20260902222021 37 285 3.2 4.8 0.00 0.00 0.00 42 1009.3
20260902221521 37 148 1.6 6.4 0.00 0.00 0.00 43 1009.4
20260902221021 37 268 3.2 6.4 0.00 0.00 0.00 42 1009.4
20260902220521 36 355 3.2 6.4 0.00 0.00 0.00 43 1009.4
20260902220021 36 319 0.0 4.8 0.00 0.00 0.00 43 1009.6
20260902215521 36 329 1.6 8.0 0.00 0.00 0.00 43 1009.6
20260902215021 36 299 4.8 11.3 0.00 0.00 0.00 43 1009.6
20260902214521 36 303 6.4 11.3 0.00 0.00 0.00 42 1009.7
20260902213520 36 227 1.6 3.2 0.00 0.00 0.00 45 1009.7
20260902213020 36 148 1.6 6.4 0.00 0.00 0.00 45 1009.8
20260902212020 36 159 0.0 11.3 0.00 0.00 0.00 45 1009.9
20260902211520 36 95 4.8 11.3 0.00 0.00 0.00 45 1010.0
20260902211020 36 115 4.8 6.4 0.00 0.00 0.00 45 1010.0
20260902210520 36 102 1.6 6.4 0.00 0.00 0.00 45 1010.1
20260902210020 36 152 6.4 6.4 0.00 0.00 0.00 45 1010.1
20260902205520 36 300 1.6 6.4 0.00 0.00 0.00 45 1010.3
20260902205020 36 203 3.2 6.4 0.00 0.00 0.00 45 1010.5
20260902204520 36 178 3.2 6.4 0.00 0.00 0.00 45 1010.5
20260902204020 36 209 1.6 6.4 0.00 0.00 0.00 46 1010.6
20260902203520 36 246 3.2 6.4 0.00 0.00 0.00 46 1010.7
20260902203020 36 60 1.6 9.7 0.00 0.00 0.00 46 1010.7
20260902202520 36 252 4.8 11.3 0.00 0.00 0.00 46 1010.8
20260902202020 36 309 3.2 11.3 0.00 0.00 0.00 46 1010.7
20260902201519 36 145 3.2 11.3 0.00 0.00 0.00 47 1010.8
20260902201019 35 113 3.2 3.2 0.00 0.00 0.00 47 1010.8
20260902200520 35 108 0.0 4.8 0.00 0.00 0.00 46 1010.9
20260902200019 35 92 4.8 4.8 0.00 0.00 0.00 46 1011.0
20260902194519 35 107 1.6 6.4 0.00 0.00 0.00 47 1011.2
20260902194019 35 107 3.2 6.4 0.00 0.00 0.00 48 1011.3
20260902193019 35 90 1.6 9.7 0.00 0.00 0.00 49 1011.4
20260902192519 35 286 3.2 9.7 0.00 0.00 0.00 48 1011.6
20260902192019 35 145 1.6 4.8 0.00 0.00 0.00 48 1011.6
20260902191519 35 187 3.2 4.8 0.00 0.00 0.00 48 1011.7
20260902190018 36 131 4.8 6.4 0.00 0.00 0.00 47 1012.0
20260902185518 36 218 1.6 6.4 0.00 0.00 0.00 47 1012.1
20260902185019 36 298 3.2 9.7 0.00 0.00 0.00 46 1012.1
20260902184519 36 124 4.8 9.7 0.00 0.00 0.00 46 1012.2
20260902183518 36 269 1.6 6.4 0.00 0.00 0.00 46 1012.4
20260902183018 36 321 4.8 11.3 0.00 0.00 0.00 47 1012.4
20260902182519 36 289 4.8 12.9 0.00 0.00 0.00 47 1012.5
20260902182019 36 319 3.2 12.9 0.00 0.00 0.00 47 1012.6
20260902181518 36 347 6.4 6.4 0.00 0.00 0.00 48 1012.8
20260902181018 35 326 6.4 9.7 0.00 0.00 0.00 48 1012.8
20260902180518 35 105 3.2 14.5 0.00 0.00 0.00 49 1012.9
20260902175518 36 29 4.8 4.8 0.00 0.00 0.00 49 1013.2
20260902175018 35 104 4.8 4.8 0.00 0.00 0.00 49 1013.3
20260902174518 35 104 0.0 4.8 0.00 0.00 0.00 50 1013.4
20260902173518 35 148 4.8 4.8 0.00 0.00 0.00 51 1013.5
20260902173017 35 113 1.6 8.0 0.00 0.00 0.00 51 1013.6
20260902172517 35 316 4.8 8.0 0.00 0.00 0.00 51 1013.7
20260902172018 35 211 8.0 8.0 0.00 0.00 0.00 52 1013.8
20260902171517 35 311 8.0 11.3 0.00 0.00 0.00 52 1013.8
20260902171018 35 281 6.4 11.3 0.00 0.00 0.00 52 1014.0
20260902170518 35 263 1.6 11.3 0.00 0.00 0.00 53 1014.0
20260902170017 35 247 3.2 11.3 0.00 0.00 0.00 53 1014.0
20260902165517 34 184 4.8 14.5 0.00 0.00 0.00 54 1014.1
20260902165017 34 200 4.8 14.5 0.00 0.00 0.00 55 1014.2
20260902164517 33 147 0.0 9.7 0.00 0.00 0.00 56 1014.2
20260902164017 33 259 1.6 9.7 0.00 0.00 0.00 56 1014.2
20260902163517 33 320 6.4 9.7 0.00 0.00 0.00 57 1014.3
20260902163017 33 107 1.6 6.4 0.00 0.00 0.00 57 1014.3
20260902162517 33 297 4.8 6.4 0.00 0.00 0.00 58 1014.3
20260902162017 33 279 4.8 6.4 0.00 0.00 0.00 58 1014.3
20260902161517 33 272 0.0 6.4 0.00 0.00 0.00 59 1014.4
20260902161017 32 157 3.2 11.3 0.00 0.00 0.00 60 1014.3
20260902160517 32 260 4.8 11.3 0.00 0.00 0.00 61 1014.3
20260902160017 32 139 1.6 6.4 0.00 0.00 0.00 62 1014.2
20260902155517 32 240 3.2 8.0 0.00 0.00 0.00 62 1014.4
20260902155017 32 163 8.0 8.0 0.00 0.00 0.00 63 1014.4
20260902154517 32 337 3.2 6.4 0.00 0.00 0.00 64 1014.4
20260902154017 31 139 6.4 6.4 0.00 0.00 0.00 65 1014.3
20260902153517 31 140 3.2 11.3 0.00 0.00 0.00 66 1014.3
20260902153017 31 296 3.2 11.3 0.00 0.00 0.00 67 1014.4
20260902152517 31 271 3.2 4.8 0.00 0.00 0.00 67 1014.4
20260902152016 30 271 1.6 4.8 0.00 0.00 0.00 68 1014.4
20260902151517 30 328 4.8 6.4 0.00 0.00 0.00 69 1014.3
20260902151016 30 314 4.8 12.9 0.00 0.00 0.00 69 1014.3
20260902150516 30 236 6.4 12.9 0.00 0.00 0.00 70 1014.3
20260902150016 30 249 6.4 6.4 0.00 0.00 0.00 70 1014.3
20260902145516 30 211 1.6 8.0 0.00 0.00 0.00 71 1014.2
20260902145016 29 251 4.8 8.0 0.00 0.00 0.00 72 1014.3
20260902144016 29 121 3.2 11.3 0.00 0.00 0.00 73 1014.5
20260902143516 29 286 4.8 9.7 0.00 0.00 0.00 73 1014.4
20260902142016 28 281 3.2 11.3 0.00 0.00 0.00 74 1014.6
20260902141516 28 226 3.2 6.4 0.00 0.00 0.00 75 1014.5
20260902141016 28 294 6.4 6.4 0.00 0.00 0.00 75 1014.6
20260902140516 28 166 6.4 6.4 0.00 0.00 0.00 75 1014.6
20260902140016 28 254 3.2 4.8 0.00 0.00 0.00 76 1014.5
20260902135516 28 157 4.8 4.8 0.00 0.00 0.00 76 1014.5
20260902135015 28 206 1.6 6.4 0.00 0.00 0.00 76 1014.4
20260902134516 27 252 3.2 6.4 0.00 0.00 0.00 76 1014.5
20260902133015 27 325 3.2 8.0 0.00 0.00 0.00 77 1014.4
20260902132515 27 235 0.0 8.0 0.00 0.00 0.00 77 1014.3
20260902132015 27 217 3.2 9.7 0.00 0.00 0.00 77 1014.3
20260902131515 26 178 3.2 9.7 0.00 0.00 0.00 78 1014.1
20260902131015 26 298 0.0 4.8 0.00 0.00 0.00 78 1014.1
20260902130015 26 224 0.0 0.0 0.00 0.00 0.00 78 1014.0
20260902125515 26 263 0.0 1.6 0.00 0.00 0.00 78 1014.0
20260902125015 26 261 0.0 1.6 0.00 0.00 0.00 78 1014.0
20260902124015 25 326 0.0 0.0 0.00 0.00 0.00 78 1013.8
20260902123515 25 326 0.0 0.0 0.00 0.00 0.00 78 1013.8
20260902123014 25 198 0.0 0.0 0.00 0.00 0.00 78 1013.7
20260902122514 25 198 0.0 1.6 0.00 0.00 0.00 78 1013.6
20260902122014 25 198 0.0 1.6 0.00 0.00 0.00 78 1013.6
20260902121514 25 208 0.0 1.6 0.00 0.00 0.00 78 1013.6
20260902120514 25 209 1.6 3.2 0.00 0.00 0.00 79 1013.6
20260902120014 25 202 0.0 1.6 0.00 0.00 0.00 79 1013.6
20260902115514 25 201 0.0 1.6 0.00 0.00 0.00 79 1013.6
20260902115014 25 202 0.0 1.6 0.00 0.00 0.00 79 1013.6
20260902114514 25 171 0.0 0.0 0.00 0.00 0.00 79 1013.6
20260902114014 25 171 0.0 0.0 0.00 0.00 0.00 79 1013.6
20260902113514 25 190 0.0 0.0 0.00 0.00 0.00 78 1013.5
20260902113014 25 106 0.0 0.0 0.00 0.00 0.00 78 1013.5
20260902112514 25 106 0.0 0.0 0.00 0.00 0.00 78 1013.5
20260902112014 25 106 0.0 0.0 0.00 0.00 0.00 78 1013.5
20260902110014 25 106 0.0 0.0 0.00 0.00 0.00 77 1013.5
20260902105013 25 106 0.0 0.0 0.00 0.00 0.00 77 1013.5
20260902104513 25 106 0.0 0.0 0.00 0.00 0.00 77 1013.5
20260902103513 25 106 0.0 0.0 0.00 0.00 0.00 77 1013.6
20260902102013 25 106 0.0 0.0 0.00 0.00 0.00 77 1013.5
20260902101513 25 106 0.0 0.0 0.00 0.00 0.00 77 1013.5
20260902101013 26 106 0.0 0.0 0.00 0.00 0.00 76 1013.6
20260902100513 26 106 0.0 0.0 0.00 0.00 0.00 76 1013.5
20260902100013 26 106 0.0 0.0 0.00 0.00 0.00 76 1013.3
20260902095013 26 106 0.0 0.0 0.00 0.00 0.00 76 1013.4
20260902094513 26 106 0.0 0.0 0.00 0.00 0.00 76 1013.4
20260902093513 26 106 0.0 0.0 0.00 0.00 0.00 75 1013.5
20260902093012 26 106 0.0 0.0 0.00 0.00 0.00 75 1013.4
20260902092512 26 106 0.0 0.0 0.00 0.00 0.00 75 1013.5
20260902090512 26 106 0.0 0.0 0.00 0.00 0.00 74 1013.6
20260902085012 26 106 0.0 0.0 0.00 0.00 0.00 74 1013.6
20260902084512 27 106 0.0 0.0 0.00 0.00 0.00 73 1013.7
20260902084012 27 106 0.0 0.0 0.00 0.00 0.00 73 1013.6
20260902083512 27 106 0.0 0.0 0.00 0.00 0.00 73 1013.6
20260902083012 27 106 0.0 0.0 0.00 0.00 0.00 73 1013.6
20260902082512 27 106 0.0 0.0 0.00 0.00 0.00 73 1013.7
20260902082011 27 106 0.0 1.6 0.00 0.00 0.00 73 1013.8
20260902081512 27 106 0.0 1.6 0.00 0.00 0.00 72 1013.8
20260902081012 27 163 0.0 0.0 0.00 0.00 0.00 71 1013.7
20260902080512 27 163 0.0 0.0 0.00 0.00 0.00 72 1013.7
20260902080011 27 163 0.0 1.6 0.00 0.00 0.00 72 1013.7
20260902075512 27 163 0.0 1.6 0.00 0.00 0.00 72 1013.7
20260902075011 27 163 0.0 0.0 0.00 0.00 0.00 71 1013.6
20260902074511 27 163 0.0 0.0 0.00 0.00 0.00 71 1013.6
20260902074011 27 163 0.0 0.0 0.00 0.00 0.00 71 1013.6
20260902073011 27 163 0.0 0.0 0.00 0.00 0.00 70 1013.8
20260902072511 28 163 0.0 0.0 0.00 0.00 0.00 70 1013.8
20260902072011 28 98 0.0 0.0 0.00 0.00 0.00 70 1013.8
20260902071511 28 98 0.0 6.4 0.00 0.00 0.00 70 1013.9
20260902071011 28 98 0.0 6.4 0.00 0.00 0.00 70 1013.8
20260902070511 28 146 0.0 0.0 0.00 0.00 0.00 69 1013.8
20260902070011 28 146 0.0 0.0 0.00 0.00 0.00 69 1013.8
20260902065511 28 146 0.0 0.0 0.00 0.00 0.00 69 1013.8
20260902065011 28 146 0.0 3.2 0.00 0.00 0.00 69 1013.9
20260902064511 28 160 0.0 3.2 0.00 0.00 0.00 69 1013.8
20260902064011 28 145 3.2 3.2 0.00 0.00 0.00 69 1013.8
20260902063510 28 145 0.0 1.6 0.00 0.00 0.00 68 1013.8
20260902063011 28 126 0.0 0.0 0.00 0.00 0.00 68 1013.8
20260902062511 28 126 0.0 4.8 0.00 0.00 0.00 68 1013.8
20260902062010 28 123 0.0 4.8 0.00 0.00 0.00 68 1013.8
20260902060510 28 250 1.6 4.8 0.00 0.00 0.00 67 1013.8
20260902060010 28 200 4.8 4.8 0.00 0.00 0.00 67 1013.7
20260902055510 29 222 0.0 1.6 0.00 0.00 0.00 67 1013.8
20260902054510 29 111 0.0 1.6 0.00 0.00 0.00 66 1013.7
20260902054010 29 219 1.6 3.2 0.00 0.00 0.00 66 1013.7
20260902053510 29 209 1.6 3.2 0.00 0.00 0.00 66 1013.6
20260902053010 29 214 3.2 3.2 0.00 0.00 0.00 66 1013.7
20260902051510 30 155 0.0 4.8 0.00 0.00 0.00 65 1013.7
20260902051010 30 214 3.2 4.8 0.00 0.00 0.00 65 1013.6
20260902050010 30 167 1.6 6.4 0.00 0.00 0.00 64 1013.6
20260902045509 30 164 1.6 6.4 0.00 0.00 0.00 64 1013.7
20260902045009 30 217 0.0 8.0 0.00 0.00 0.00 63 1013.6
20260902044509 30 146 1.6 8.0 0.00 0.00 0.00 63 1013.6
20260902044010 30 197 3.2 4.8 0.00 0.00 0.00 62 1013.7
20260902043009 30 147 3.2 4.8 0.00 0.00 0.00 62 1013.7
20260902042509 30 261 0.0 3.2 0.00 0.00 0.00 61 1013.8
20260902042009 30 127 1.6 8.0 0.00 0.00 0.00 60 1013.7
20260902041509 31 164 6.4 8.0 0.00 0.00 0.00 60 1013.8
20260902041009 31 198 4.8 8.0 0.00 0.00 0.00 60 1013.7
20260902040509 31 140 3.2 12.9 0.00 0.00 0.00 59 1013.7
20260902040009 31 245 4.8 12.9 0.00 0.00 0.00 59 1013.5
20260902035509 31 112 9.7 16.1 0.00 0.00 0.00 58 1013.4
20260902035009 31 194 3.2 16.1 0.00 0.00 0.00 58 1013.4
20260902034509 31 127 1.6 11.3 0.00 0.00 0.00 57 1013.3
20260902034009 31 126 1.6 4.8 0.00 0.00 0.00 57 1013.3
20260902033508 31 150 1.6 9.7 0.00 0.00 0.00 56 1013.2
20260902033008 31 125 1.6 12.9 0.00 0.00 0.00 56 1013.2
20260902032509 32 132 3.2 12.9 0.00 0.00 0.00 56 1013.1
20260902032008 32 130 3.2 4.8 0.00 0.00 0.00 56 1013.1
20260902031508 32 143 1.6 8.0 0.00 0.00 0.00 55 1013.1
20260902031008 32 159 3.2 8.0 0.00 0.00 0.00 55 1012.9
20260902030508 32 173 1.6 6.4 0.00 0.00 0.00 55 1012.9
20260902030008 32 106 3.2 6.4 0.00 0.00 0.00 54 1012.8
20260902024508 32 128 4.8 11.3 0.00 0.00 0.00 54 1012.4
20260902024008 32 113 4.8 11.3 0.00 0.00 0.00 53 1012.4
20260902023508 32 164 3.2 6.4 0.00 0.00 0.00 53 1012.3
20260902022507 32 103 1.6 4.8 0.00 0.00 0.00 52 1012.1
20260902022007 32 137 4.8 4.8 0.00 0.00 0.00 52 1012.0
20260902021507 32 147 3.2 4.8 0.00 0.00 0.00 51 1011.9
20260902020507 33 164 0.0 4.8 0.00 0.00 0.00 50 1011.8
20260902020007 33 111 0.0 4.8 0.00 0.00 0.00 50 1011.8
20260902015507 33 211 3.2 4.8 0.00 0.00 0.00 50 1011.6
20260902015007 33 232 4.8 4.8 0.00 0.00 0.00 49 1011.4
20260902014507 33 121 0.0 4.8 0.00 0.00 0.00 49 1011.5
20260902014007 33 135 4.8 4.8 0.00 0.00 0.00 48 1011.5
20260902013507 33 136 3.2 6.4 0.00 0.00 0.00 48 1011.5
20260902013007 33 140 4.8 6.4 0.00 0.00 0.00 48 1011.4
20260902012506 33 146 1.6 9.7 0.00 0.00 0.00 47 1011.4
20260902012006 34 113 4.8 16.1 0.00 0.00 0.00 47 1011.4
20260902011507 34 140 3.2 16.1 0.00 0.00 0.00 47 1011.4
20260902011007 34 141 6.4 11.3 0.00 0.00 0.00 46 1011.3
20260902010507 35 100 4.8 9.7 0.00 0.00 0.00 45 1011.2
20260902010006 35 153 4.8 9.7 0.00 0.00 0.00 45 1011.2
20260902005507 35 119 1.6 11.3 0.00 0.00 0.00 45 1011.1
20260902005006 35 131 3.2 14.5 0.00 0.00 0.00 44 1011.1
20260902004506 35 99 4.8 14.5 0.00 0.00 0.00 43 1011.1
20260902004006 35 183 6.4 11.3 0.00 0.00 0.00 43 1011.1
20260902003006 35 112 3.2 9.7 0.00 0.00 0.00 43 1011.1
20260902002506 35 108 9.7 9.7 0.00 0.00 0.00 43 1011.2
20260902002006 35 114 1.6 3.2 0.00 0.00 0.00 42 1011.2
20260902001506 35 119 1.6 11.3 0.00 0.00 0.00 42 1011.2
20260902001006 36 93 3.2 11.3 0.00 0.00 0.00 42 1011.3
20260902000506 36 103 4.8 9.7 0.00 0.00 0.00 42 1011.2
20260902000005 36 100 9.7 12.9 0.00 0.00 0.00 42 1011.3
20260901235506 36 91 4.8 12.9 0.00 0.00 0.00 42 1011.2
20260901234505 36 109 4.8 6.4 0.00 0.00 0.00 41 1011.2
20260901233505 36 83 8.0 17.7 0.00 0.00 0.00 40 1011.2
20260901233005 37 96 9.7 9.7 0.00 0.00 0.00 40 1011.3
20260901232535 37 98 3.2 8.0 0.00 0.00 0.00 40 1011.2
20260901232035 37 124 6.4 8.0 0.00 0.00 0.00 40 1011.1
20260901231535 37 49 1.6 11.3 0.00 0.00 0.00 39 1011.1
20260901231035 37 101 4.8 11.3 0.00 0.00 0.00 39 1011.1